FW8702 Weather Reports


Display with metric or nautical units.
time (UTC)temp
F
wind
direction
speed
MPH
gust
MPH
rain 1hr
in
rain 24hr
in
rain mn
in
humidity
%
barometer
mb
20260508064534 60 122 0.0 0.0 0.00 0.01 0.00 80 1017.8
20260508063051 58 121 0.0 0.0 0.00 0.01 0.00 82 1017.8
20260508061519 56 121 0.0 0.0 0.00 0.01 0.00 83 1017.5
20260508060033 55 121 0.0 1.0 0.00 0.01 0.00 88 1017.4
20260508054604 54 123 0.0 0.0 0.00 0.01 0.00 89 1017.3
20260508053011 53 124 0.0 2.0 0.00 0.01 0.00 89 1017.3
20260508051529 53 125 0.0 0.0 0.00 0.01 0.00 89 1017.2
20260508050032 52 125 0.0 0.0 0.00 0.01 0.00 90 1017.1
20260508044541 52 125 0.0 0.0 0.00 0.01 0.00 91 1017.1
20260508043005 51 125 0.0 0.0 0.00 0.01 0.00 90 1017.0
20260508041514 51 125 0.0 0.0 0.00 0.01 0.00 89 1016.8
20260508040021 52 124 0.0 0.0 0.00 0.01 0.00 89 1016.9
20260508034530 51 124 0.0 0.0 0.00 0.01 0.00 89 1016.9
20260508033056 51 124 0.0 0.0 0.00 0.01 0.00 89 1016.9
20260508031527 51 79 0.0 1.0 0.00 0.01 0.00 90 1016.7
20260508030017 51 308 0.0 0.0 0.00 0.01 0.00 90 1016.3
20260508024549 50 302 0.0 0.0 0.00 0.01 0.00 91 1016.3
20260508023022 50 277 0.0 0.0 0.00 0.01 0.00 91 1016.2
20260508021525 50 277 0.0 0.0 0.00 0.01 0.00 91 1016.2
20260508020007 50 277 0.0 0.0 0.00 0.01 0.00 91 1016.3
20260508014546 50 277 0.0 0.0 0.00 0.01 0.00 91 1016.4
20260508013046 50 277 0.0 0.0 0.00 0.01 0.00 90 1016.4
20260508011503 50 276 0.0 0.0 0.00 0.01 0.00 90 1016.3
20260508010003 51 276 0.0 0.0 0.00 0.02 0.00 90 1016.3
20260508004530 51 276 0.0 0.0 0.00 0.02 0.00 90 1016.3
20260508003057 51 276 0.0 0.0 0.00 0.02 0.00 90 1016.4
20260508001508 51 276 0.0 0.0 0.00 0.02 0.00 90 1016.3
20260508000052 51 276 0.0 0.0 0.00 0.02 0.00 89 1016.4
20260507234517 51 276 0.0 0.0 0.00 0.04 0.00 89 1016.3
20260507233047 51 276 0.0 0.0 0.00 0.04 0.00 89 1016.3
20260507231512 52 276 0.0 0.0 0.00 0.04 0.00 89 1016.3
20260507230015 52 276 0.0 0.0 0.00 0.05 0.00 89 1016.4
20260507224528 52 276 0.0 0.0 0.00 0.05 0.00 89 1016.3
20260507223051 52 277 0.0 0.0 0.00 0.05 0.00 88 1016.4
20260507221508 52 161 0.0 0.0 0.00 0.05 0.00 89 1016.4
20260507220012 53 240 0.0 0.0 0.00 0.10 0.05 88 1016.2
20260507214538 53 240 0.0 0.0 0.00 0.10 0.05 88 1016.0
20260507213046 54 240 0.0 0.0 0.00 0.10 0.05 87 1015.7
20260507211511 54 240 0.0 0.0 0.00 0.10 0.05 86 1015.8
20260507210031 54 240 0.0 0.0 0.00 0.15 0.05 85 1015.9
20260507204600 55 240 0.0 0.0 0.00 0.15 0.05 86 1015.8
20260507203016 55 240 0.0 0.0 0.00 0.15 0.05 85 1015.7
20260507201531 55 240 0.0 0.0 0.00 0.15 0.05 84 1015.3
20260507200029 55 240 0.0 0.0 0.00 0.15 0.05 84 1015.1
20260507194545 56 240 0.0 0.0 0.00 0.15 0.05 83 1014.9
20260507193009 57 240 0.0 0.0 0.00 0.15 0.05 82 1014.7
20260507191522 58 240 0.0 0.0 0.00 0.15 0.05 80 1014.6
20260507190005 59 240 0.0 0.0 0.00 0.15 0.05 79 1014.5
20260507184519 61 240 0.0 0.0 0.00 0.15 0.05 77 1014.2
20260507183047 62 240 0.0 0.0 0.00 0.15 0.05 75 1014.2
20260507181511 63 240 0.0 0.0 0.00 0.15 0.05 71 1014.0
20260507180027 66 240 0.0 0.0 0.00 0.39 0.05 68 1013.6
20260507174558 67 240 0.0 0.0 0.00 0.39 0.05 62 1013.5
20260507173020 68 240 0.0 0.0 0.00 0.39 0.05 55 1013.4
20260507171536 70 240 0.0 0.0 0.00 0.39 0.05 53 1013.4
20260507170034 69 240 0.0 0.0 0.00 0.39 0.05 52 1013.5
20260507164547 69 240 0.0 0.0 0.00 0.39 0.05 49 1013.3
20260507163010 71 232 0.0 1.0 0.00 0.39 0.05 47 1013.4
20260507161523 71 237 0.0 1.0 0.00 0.39 0.05 47 1013.4
20260507160021 71 239 0.0 0.0 0.00 0.39 0.05 49 1013.2
20260507154532 71 225 0.0 1.0 0.00 0.39 0.05 46 1013.2
20260507153102 71 237 0.0 3.0 0.00 0.39 0.05 49 1013.2
20260507151527 71 260 0.0 1.0 0.00 0.39 0.05 49 1013.3
20260507150029 70 239 0.0 7.0 0.00 0.39 0.05 49 1013.4
20260507144539 71 237 0.0 5.0 0.00 0.39 0.05 49 1013.5
20260507143003 70 215 0.0 6.0 0.00 0.39 0.05 51 1013.4
20260507141530 71 231 0.0 3.0 0.00 0.39 0.05 53 1013.5
20260507140026 70 161 0.0 6.0 0.00 0.39 0.05 55 1013.7
20260507134543 70 221 1.0 7.0 0.00 0.39 0.05 52 1014.0
20260507133004 70 265 0.0 4.0 0.00 0.39 0.05 52 1014.1
20260507131527 69 304 0.0 1.0 0.00 0.39 0.05 51 1014.3
20260507130003 68 244 0.0 1.0 0.00 0.56 0.05 56 1014.2
20260507124532 67 237 0.0 4.0 0.00 0.56 0.05 59 1014.3
20260507123042 69 231 0.0 4.0 0.00 0.56 0.05 60 1014.4
20260507121553 67 283 0.0 11.0 0.00 0.56 0.05 62 1014.4
20260507120054 68 285 0.0 1.0 0.00 0.56 0.05 65 1014.6
20260507114516 66 234 0.0 9.0 0.00 0.86 0.05 64 1014.8
20260507113046 66 310 1.0 10.0 0.00 0.86 0.05 65 1014.7
20260507111510 66 279 0.0 2.0 0.00 0.86 0.05 69 1014.8
20260507110010 65 230 0.0 12.0 0.00 1.02 0.05 69 1014.9
20260507104511 65 269 0.0 6.0 0.00 1.02 0.05 69 1015.2
20260507103040 64 206 0.0 11.0 0.00 1.02 0.05 69 1015.4
20260507101510 64 213 0.0 4.0 0.00 1.02 0.05 70 1015.4
20260507100031 64 240 1.0 5.0 0.00 1.02 0.05 68 1015.5
20260507094539 64 237 1.0 8.0 0.00 1.02 0.05 69 1015.6
20260507093003 64 221 0.0 1.0 0.00 1.02 0.05 73 1015.4
20260507091550 62 222 0.0 2.0 0.00 1.02 0.05 77 1015.4
20260507090035 61 257 0.0 6.0 0.00 1.02 0.05 76 1015.4
20260507084600 60 290 0.0 8.0 0.00 1.02 0.05 76 1015.4
20260507083107 60 256 0.0 0.0 0.00 1.02 0.05 77 1015.3
20260507081534 59 304 0.0 0.0 0.00 1.02 0.05 78 1015.2
20260507080017 58 285 0.0 0.0 0.00 1.02 0.05 81 1015.2
20260507074544 58 321 0.0 2.0 0.01 1.02 0.05 81 1015.3
20260507073009 56 304 0.0 1.0 0.01 1.02 0.05 82 1015.4
20260507071524 55 69 0.0 5.0 0.01 1.02 0.05 82 1015.4
20260507070010 55 63 1.0 10.0 0.01 1.02 0.05 82 1015.3